Погода в Севрюкаеве

Россия / Самарская область     53°10′34″N   49°29′57″E
темп.,
°C
ветер,
м/с
пор.,
м/с
влажн.,
%
обл.,
%
осадки,
мм/ч
давл.,
гПа
погр.,
м
23 мая, пн
пн2301:00+7св3690100 0.3 997255
04:00+6ссв3789100 0.9 997275
07:00+6с3592100 1.5 998293
10:00+5с4583100 1.6 999407
13:00+9сз336598 0.0 10001306
16:00+9зсз346397 0.1 10021145
19:00+8сз237081 0.0 1002697
22:00+5зсз117768 0.0 100316
24 мая, вт
вт2401:00+4зсз22808 0.0 100417
04:00+2зсз12820 0.0 100514
07:00+5юз23740 0.0 1006250
10:00+9юз46612 0.0 1006839
13:00+12юз575482 0.1 10061975
16:00+14юз574899 0.1 10052050
19:00+12сз246999 0.3 1007101
22:00+7св227510 0.3 100721
25 мая, ср
ср2501:00+6зсз228069 0.0 100828
04:00+4зсз229018 0.0 100822
07:00+5ссз569299 0.1 1009578
10:00+6ссз5578100 0.1 1011904
13:00+9сз346448 0.1 10121177
16:00+9сз446597 0.2 1012876
19:00+9сз246733 0.0 1013769
22:00+5сз34815 0.1 101372
26 мая, чт
чт2601:00+4сз33885 0.0 101444
04:00+3зсз23915 0.0 101442
07:00+5з367699 0.0 1014267
10:00+9зюз566399 0.0 10141147
13:00+11зюз5753100 0.1 10132031
16:00+12юз5856100 0.2 10121794
19:00+11ююз4870100 0.1 1011389
22:00+10ю41274100 0.1 1009442
27 мая, пт
пт2701:00+11ююз81689100 3.3 1005710
04:00+11ююз51296100 4.4 1004433
07:00+11ююз81593100 1.2 10031011
10:00+11ююз81394100 2.3 1001994
13:00+15юз81178100 0.9 10001478
16:00+15зюз69758 2.3 10011117
19:00+11юз488994 1.0 1001370
22:00+10зюз3795100 1.1 1003351